Location: T. Spence Memorial Observatory
(32.7356°N, 82.2098°W)
Time: 23:55:19
(UTC-04:00)

Daily predictions for brighter satellites

Satellite Brightness Start Highest point End
(mag) Time Altitude Azimuth Time Altitude Azimuth Time Altitude Azimuth
COSMOS 2455 3.1 20:49:22 10° S 20:55:05 49° ESE 21:00:50 10° NE
Cosmos 1726 Rocket 3.5 20:53:52 10° N 20:58:19 78° E 21:02:41 10° S
Cosmos 2278 Rocket 3.8 20:58:13 10° NW 21:03:17 34° WSW 21:08:20 10° SSW
ALOS 2.3 21:01:36 10° SSE 21:06:12 64° ENE 21:10:50 10° N
ISS -1.0 21:09:37 10° W 21:12:30 28° NW 21:15:23 10° NNE
Cosmos 2369 Rocket 4.0 21:10:14 10° NNE 21:13:32 16° ENE 21:16:48 10° E
Cosmos 1331 Rocket 4.5 21:10:36 10° NNW 21:15:43 63° WSW 21:20:47 10° S
Cosmos 1602 Rocket 3.7 21:11:29 10° S 21:15:50 55° E 21:20:13 10° NNE
ATLAS 3B R/B 3.3 21:09:32 10° S 21:16:39 43° ESE 21:23:44 10° NE
USA 186 1.3 21:15:12 10° S 21:18:01 86° WSW 21:20:40 10° NNW
Cosmos 1666 2.8 21:14:46 10° N 21:18:38 60° E 21:22:27 10° SSE
deb Centaur AC-2 4.4 21:16:25 10° W 21:21:00 65° S 21:26:22 11° E
Abrixas rocket 2.8 21:17:52 10° WNW 21:21:12 51° SW 21:24:01 13° SSE
Cosmos 2058 Rocket 3.3 21:18:19 10° NNW 21:22:39 70° W 21:26:58 10° S
Okean 2 4.5 21:21:05 10° SSW 21:25:07 49° W 21:29:11 10° N
Tsikada Rocket 4.1 21:21:38 10° S 21:27:55 62° E 21:34:12 10° NNE
Cosmos 1302 Rocket 4.1 21:23:56 10° NNW 21:29:12 84° WSW 21:34:28 10° SSE
Cosmos 1812 Rocket 4.2 21:27:23 10° NNE 21:31:29 37° E 21:34:25 17° SE
CZ-2D R/B 4.3 21:28:12 10° S 21:31:56 45° W 21:35:42 10° NNW
CZ-2C R/B 0.2 21:33:08 23° SSE 21:34:22 71° ENE 21:36:38 10° N
SPOT 5 3.9 21:32:24 16° ESE 21:34:41 24° ENE 21:38:11 10° NNE
H-2A R/B 2.1 21:36:22 16° SSE 21:39:40 60° ENE 21:43:57 10° N
Lacrosse 4 Rocket 1.6 21:36:19 10° S 21:40:07 42° ESE 21:43:58 10° NE
YAOGAN 11 4.3 21:35:54 10° S 21:40:14 70° W 21:44:32 10° NNW
Timation 1 Rocket 4.4 21:35:32 10° NNW 21:41:34 83° WSW 21:46:51 14° SSE
ERS-1 Rocket 2.9 21:37:12 12° SSE 21:41:56 80° ENE 21:46:58 10° N
Cosmos 1464 Rocket 4.4 21:39:33 10° NNW 21:45:38 64° W 21:51:44 10° S
Cosmos 1515 3.9 21:43:18 17° SSE 21:46:00 49° E 21:49:44 10° NNE
deb Chang Zheng 4 3.8 21:42:01 10° N 21:46:23 75° WNW 21:50:42 10° SSW
GEOS 3 Rocket 3.7 21:42:38 19° SE 21:46:24 66° NE 21:51:35 10° NNW
Cosmos 1626 Rocket 4.1 21:42:43 10° SSW 21:47:06 61° W 21:51:29 10° N
Cosmos 2228 3.7 21:43:41 10° NNW 21:47:59 54° W 21:52:16 10° S
PSLV R/B 4.4 21:47:37 25° E 21:48:08 26° ENE 21:50:48 10° NNE
Cosmos 1816 Rocket 4.5 21:48:43 10° S 21:55:04 79° E 22:01:24 10° N
Atlas Centaur 2 2.8 21:49:36 10° W 21:56:34 76° S 22:03:24 16° E
Cosmos 1238 4.1 21:55:13 20° S 21:57:14 89° W 22:00:14 10° N
Envisat 3.1 21:54:15 23° SE 21:57:15 57° ENE 22:02:15 10° N
Cosmos 407 Rocket 3.6 21:55:32 13° S 22:00:06 52° ESE 22:05:11 10° NNE
USA 238 DEB 4.3 21:55:27 10° S 22:01:43 34° ESE 22:07:57 10° NE
USA 238 4.3 21:55:34 10° S 22:01:49 34° ESE 22:08:02 10° NE
Cosmos 1634 Rocket 4.4 21:58:33 10° N 22:04:26 45° E 22:07:18 28° SE
Cosmos 1900 4.3 22:00:22 10° SSW 22:05:30 76° ESE 22:10:39 10° NNE
Cosmos 1943 Rocket 3.9 22:03:35 10° NNE 22:07:03 17° ENE 22:08:55 14° E
Cosmos 1953 Rocket 3.9 22:06:21 35° SE 22:07:38 45° E 22:11:52 10° NNE
Cosmos 1943 3.4 22:04:42 10° SSW 22:10:21 74° WNW 22:16:03 10° NNE
Cosmos 1461 4.5 22:06:50 10° NW 22:10:23 28° WSW 22:12:47 16° SSW
Cosmos 2346 Rocket 4.4 22:10:16 18° S 22:15:00 73° E 22:21:07 10° N
Cosmos 1939 Rocket 3.3 22:13:44 26° S 22:15:54 63° W 22:20:01 10° NNW
Centaur D AC-29 4.3 22:09:23 10° W 22:16:46 14° WSW 22:20:37 10° SSW
Cosmos 1954 Rocket 4.3 22:19:49 38° SE 22:21:05 45° ESE 22:26:08 10° NNE
Cosmos 1932 4.4 22:16:25 10° SSW 22:22:27 59° ESE 22:28:32 10° NE
Cosmos 1346 Rocket 2.6 22:27:05 53° S 22:27:57 89° W 22:31:53 10° N
Cosmos 1842 4.4 22:35:17 31° NE 22:35:17 31° NE 22:37:50 10° NNE
NAVSTAR 52 R/B(PAM-D 4.5 22:29:51 10° WNW 22:34:43 83° SSW 22:34:45 83° SSW
Cosmos 1992 Rocket 4.1 22:30:47 10° NNW 22:35:58 68° WSW 22:37:49 39° S
SeaSat 1 2.5 22:35:39 51° ESE 22:36:45 67° ENE 22:41:39 10° NNW
ARGOS 3.4 22:36:49 44° ESE 22:37:56 52° ENE 22:43:11 10° N
Cosmos 1758 Rocket 3.5 22:40:28 60° SSW 22:41:15 86° W 22:45:37 10° N
Meteor 1-21 4.2 22:39:58 41° S 22:42:02 76° E 22:47:52 10° NNE
Mugunghwa Rocket 4.2 22:38:28 10° WSW 22:44:27 45° S 22:44:42 45° SSE
USA 81 4.2 22:40:19 10° N 22:45:35 70° W 22:47:29 39° SSW
MetOp-B 4.2 22:45:19 43° S 22:47:04 71° WSW 22:52:25 10° NNW
Geosat 4.1 22:49:02 10° NNE 22:53:29 55° E 22:53:29 55° E
CZ-4B R/B 4.3 22:51:33 10° N 22:56:30 50° WNW 22:59:55 20° SW
Cosmos 2369 Rocket 2.4 22:52:25 10° NNW 22:57:59 63° WSW 22:59:14 49° SSW
Landsat 7 4.3 22:58:24 47° ENE 22:58:24 47° ENE 23:02:40 10° N
Cosmos 1023 Rocket 4.4 22:59:56 69° E 22:59:56 69° E 23:05:07 10° NNE
Cosmos 1850 Rocket 4.5 23:01:15 45° ENE 23:01:15 45° ENE 23:05:22 10° NNE
Cosmos 1766 3.8 22:59:47 10° N 23:03:02 57° NNW 23:03:02 57° NNW
H-2A R/B 2.6 23:04:51 41° ENE 23:04:51 41° ENE 23:09:15 10° N
DELTA 2 DEB (DPAF) 4.4 23:05:25 62° NNE 23:05:25 62° NNE 23:09:23 10° N
YAOGAN 6 3.8 23:06:29 39° WNW 23:06:29 39° WNW 23:09:33 10° NNW
NOAA 11 4.0 23:05:45 73° SSE 23:06:18 89° ENE 23:11:45 10° NNW
Cosmos 1140 Rocket 3.3 23:07:17 82° ESE 23:07:17 82° ESE 23:12:33 10° NNE
ATLAS 3B R/B 4.3 23:00:24 10° WSW 23:07:27 38° NW 23:14:23 10° NNE
CZ-4 R/B 4.5 23:02:50 10° N 23:07:44 55° WNW 23:09:21 38° SW
SPOT 5 4.5 23:11:38 20° WSW 23:12:41 22° W 23:16:03 10° NW
SPOT 1/Viking Rocket 3.9 23:12:56 50° SW 23:13:36 53° W 23:18:38 10° NNW
Terra 2.5 23:14:42 43° NE 23:14:42 43° NE 23:18:29 10° N
NOSS 3-2 (A) 4.3 23:20:31 35° ENE 23:20:31 35° ENE 23:24:35 10° NE
Lacrosse 4 Rocket 4.4 23:17:11 10° W 23:19:03 13° NW 23:20:55 10° NNW
USA 234 3.5 23:21:50 49° E 23:23:18 61° NE 23:29:45 10° NW
Cosmos 1092 Rocket 4.1 23:27:08 58° E 23:27:08 58° E 23:32:59 10° NNE
Cosmos 614 Rocket 4.4 23:30:45 55° NNE 23:30:45 55° NNE 23:34:49 10° NNE
COSMOS 2406 3.7 23:33:42 48° WSW 23:34:53 57° WNW 23:40:32 10° NNE
Nadezhda 4 Rocket 3.9 23:34:52 78° SSW 23:35:17 85° W 23:41:40 10° N
DMSP B5D2-2 4.4 23:40:33 10° N 23:45:23 63° NW 23:45:23 63° NW
Atlas Centaur 2 3.0 23:38:43 10° W 23:46:02 61° SSW 23:46:02 61° SSW
Cosmos 1943 Rocket 2.7 23:45:41 10° NNW 23:50:26 53° WNW 23:50:26 53° WNW
